Flag for India Weather past 2 weeks in Wardha, Maharashtra, India

Now
59 °F

Passing clouds.


Feels Like: 58 °F
Forecast: 54 / 80 °F
Wind: 6 mph from Southeast

Location: Nagpur Sonegaon

Current Time: Dec 20, 2014 at 9:31:25 PM

Latest Report: Dec 20, 2014 at 8:40 PM


Visibility: 2 mi

Pressure: 30.04 "Hg

Humidity: 55%

Dew point: 43 °F

Location of WardhaLocation

Historic Weather in Wardha — Graph

°F

Wardha temperature yesterday

Maximum temperature yesterday: 77 °F (at 3:10 PM)
Minimum temperature yesterday: 46 °F (at 1:10 AM)
Average temperature yesterday: 60 °F

Past Weeks' High & Low Weather Summary

 TemperatureHumidityPressure
High88 °F (Dec 9, 2:10 PM)94% (Dec 15, 1:10 AM)30.21 "Hg (Dec 15, 1:10 AM)
Low46 °F (Dec 18, 6:40 AM)30% (Dec 19, 3:10 PM)29.92 "Hg (Dec 6, 3:40 PM)
Average68 °F63%30.03 "Hg
* Reported Dec 5 7:40 PM — Dec 20 8:10 PM, Wardha, Weather by CustomWeather, © 2014

Note: Actual official high and low records may vary slightly from our data, if they occured in-between our weather recording intervals... More about our weather records

Advertising

Wardha weather history for previous 24 hours

 ConditionsComfort  
Time TempWeatherWind HumidityBarometerVisibility
8:10 PM
Dec 20
61 °FPassing clouds.6 mph52%30.04 "Hg2 mi
7:40 PM63 °FPassing clouds.6 mph56%30.01 "Hg2 mi
7:10 PM63 °FPassing clouds.6 mph56%30.01 "Hg2 mi
6:40 PM64 °FPassing clouds.6 mph56%30.01 "Hg2 mi
5:40 PM72 °FScattered clouds.6 mph61%29.98 "Hg2 mi
4:40 PM75 °FScattered clouds.7 mph61%29.98 "Hg2 mi
3:40 PM77 °FScattered clouds.6 mph61%29.98 "Hg3 mi
3:10 PM77 °FScattered clouds.6 mph61%29.98 "Hg3 mi
2:40 PM75 °FBroken clouds.6 mph65%29.98 "Hg3 mi
1:40 PM75 °FScattered clouds.3 mph65%30.01 "Hg3 mi
12:10 PM73 °FHaze.6 mph65%30.07 "Hg3 mi
11:40 AM73 °FHaze.6 mph61%30.09 "Hg2 mi
11:10 AM72 °FHaze.5 mph61%30.12 "Hg2 mi
10:40 AM70 °FHaze.3 mph57%30.12 "Hg2 mi
9:40 AM66 °FHaze.3 mph56%30.15 "Hg2 mi
8:40 AM59 °FFog.2 mph55%30.15 "Hg1 mi
7:40 AM54 °FFog.No wind67%30.12 "Hg1 mi
7:10 AM48 °FFog.2 mph76%30.09 "Hg1 mi
6:40 AM48 °FFog.2 mph71%30.09 "Hg1 mi
6:10 AM48 °FHaze.3 mph71%30.09 "Hg2 mi
3:10 AM54 °FHaze.3 mph67%30.07 "Hg2 mi
2:10 AM52 °FFog.No wind67%30.07 "Hg1 mi
12:10 AM52 °FFog.No wind67%29.92 "Hg1 mi
11:10 PM
Dec 19
52 °FHaze.No wind67%30.12 "Hg1 mi
9:10 PM59 °FHaze.No wind59%30.12 "Hg2 mi
Weather by CustomWeather, © 2014

See weather overviewHow to use our weather pages